Time,TemperatureF,DewpointF,PressureIn,WindDirection,WindDirectionDegrees,WindSpeedMPH,WindSpeedGustMPH,Humidity,HourlyPrecipIn,Conditions,Clouds,dailyrainin,SoftwareType,DateUTC
2013-04-07 00:00:00,49.0,37.4,30.27,SE,131,3.0,8.0,64,0.00,,---,0.00,VWS V14.01,2013-04-07 04:00:00,
2013-04-07 00:01:00,48.9,37.3,30.27,SSE,149,4.0,4.0,64,0.00,,---,0.00,VWS V14.01,2013-04-07 04:01:00,
2013-04-07 00:06:00,48.8,37.2,30.27,SE,139,1.0,6.0,64,0.00,,---,0.00,VWS V14.01,2013-04-07 04:06:00,
2013-04-07 00:12:00,48.6,37.4,30.27,ESE,115,2.0,6.0,65,0.00,,---,0.00,VWS V14.01,2013-04-07 04:12:00,
2013-04-07 00:17:00,48.4,37.2,30.27,ENE,63,1.0,6.0,65,0.00,,---,0.00,VWS V14.01,2013-04-07 04:17:00,
2013-04-07 00:22:00,48.2,37.0,30.27,ESE,113,2.0,6.0,65,0.00,,---,0.00,VWS V14.01,2013-04-07 04:22:00,
2013-04-07 00:27:00,48.0,36.8,30.27,SSW,193,2.0,7.0,65,0.00,,---,0.00,VWS V14.01,2013-04-07 04:27:00,
2013-04-07 00:30:00,47.9,36.7,30.26,SE,134,2.0,7.0,65,0.00,,---,0.00,VWS V14.01,2013-04-07 04:30:00,
2013-04-07 00:32:00,47.7,36.9,30.27,SE,140,2.0,3.0,66,0.00,,---,0.00,VWS V14.01,2013-04-07 04:32:00,
2013-04-07 00:37:00,47.5,36.7,30.27,SE,139,2.0,4.0,66,0.00,,---,0.00,VWS V14.01,2013-04-07 04:37:00,
2013-04-07 00:42:00,47.3,36.5,30.26,ESE,112,1.0,4.0,66,0.00,,---,0.00,VWS V14.01,2013-04-07 04:42:00,
2013-04-07 00:47:00,47.1,36.7,30.26,SE,138,3.0,4.0,67,0.00,,---,0.00,VWS V14.01,2013-04-07 04:47:00,
2013-04-07 00:52:00,47.0,36.6,30.27,SE,133,2.0,5.0,67,0.00,,---,0.00,VWS V14.01,2013-04-07 04:52:00,
2013-04-07 00:57:00,46.9,36.5,30.26,ESE,113,2.0,5.0,67,0.00,,---,0.00,VWS V14.01,2013-04-07 04:57:00,
2013-04-07 01:00:00,46.8,36.4,30.26,SE,129,2.0,5.0,67,0.00,,---,0.00,VWS V14.01,2013-04-07 05:00:00,
2013-04-07 01:02:00,46.7,36.3,30.26,SE,131,3.0,4.0,67,0.00,,---,0.00,VWS V14.01,2013-04-07 05:02:00,
2013-04-07 01:07:00,46.5,36.5,30.26,SE,138,1.0,4.0,68,0.00,,---,0.00,VWS V14.01,2013-04-07 05:07:00,
2013-04-07 01:13:00,46.3,36.7,30.26,ESE,115,1.0,5.0,69,0.00,,---,0.00,VWS V14.01,2013-04-07 05:13:00,
2013-04-07 01:18:00,46.1,36.9,30.26,SE,129,2.0,5.0,70,0.00,,---,0.00,VWS V14.01,2013-04-07 05:18:00,
2013-04-07 01:23:00,45.9,36.3,30.26,SE,124,1.0,5.0,69,0.00,,---,0.00,VWS V14.01,2013-04-07 05:23:00,
2013-04-07 01:28:00,45.7,35.8,30.25,ESE,117,2.0,5.0,68,0.00,,---,0.00,VWS V14.01,2013-04-07 05:28:00,
2013-04-07 01:30:00,45.6,36.0,30.25,ESE,108,2.0,5.0,69,0.00,,---,0.00,VWS V14.01,2013-04-07 05:30:00,
2013-04-07 01:33:00,45.5,35.9,30.25,SE,127,0.0,2.0,69,0.00,,---,0.00,VWS V14.01,2013-04-07 05:33:00,
2013-04-07 01:38:00,45.3,35.7,30.25,SE,139,0.0,3.0,69,0.00,,---,0.00,VWS V14.01,2013-04-07 05:38:00,
2013-04-07 01:43:00,45.1,35.9,30.26,SE,134,0.0,3.0,70,0.00,,---,0.00,VWS V14.01,2013-04-07 05:43:00,
2013-04-07 01:48:00,44.9,35.4,30.26,SE,130,3.0,4.0,69,0.00,,---,0.00,VWS V14.01,2013-04-07 05:48:00,
2013-04-07 01:53:00,44.8,35.3,30.25,SE,138,1.0,5.0,69,0.00,,---,0.00,VWS V14.01,2013-04-07 05:53:00,
2013-04-07 01:58:00,44.6,35.1,30.25,SE,129,1.0,5.0,69,0.00,,---,0.00,VWS V14.01,2013-04-07 05:58:00,
2013-04-07 02:00:00,44.5,35.0,30.25,SE,134,1.0,5.0,69,0.00,,---,0.00,VWS V14.01,2013-04-07 06:00:00,
2013-04-07 02:03:00,44.4,34.9,30.25,SE,137,2.0,2.0,69,0.00,,---,0.00,VWS V14.01,2013-04-07 06:03:00,
2013-04-07 02:08:00,44.3,34.8,30.25,ESE,117,3.0,3.0,69,0.00,,---,0.00,VWS V14.01,2013-04-07 06:08:00,
2013-04-07 02:14:00,44.2,34.3,30.25,ESE,118,4.0,4.0,68,0.00,,---,0.00,VWS V14.01,2013-04-07 06:14:00,
2013-04-07 02:19:00,44.1,34.2,30.25,SE,131,2.0,5.0,68,0.00,,---,0.00,VWS V14.01,2013-04-07 06:19:00,
2013-04-07 02:24:00,43.9,34.0,30.24,ESE,107,2.0,5.0,68,0.00,,---,0.00,VWS V14.01,2013-04-07 06:24:00,
2013-04-07 02:29:00,43.8,33.9,30.25,SSE,149,0.0,5.0,68,0.00,,---,0.00,VWS V14.01,2013-04-07 06:29:00,
2013-04-07 02:30:00,43.8,33.9,30.24,SSW,194,1.0,5.0,68,0.00,,---,0.00,VWS V14.01,2013-04-07 06:30:00,
2013-04-07 02:34:00,43.7,33.8,30.25,SE,136,0.0,1.0,68,0.00,,---,0.00,VWS V14.01,2013-04-07 06:34:00,
2013-04-07 02:39:00,43.4,33.9,30.24,SE,129,0.0,1.0,69,0.00,,---,0.00,VWS V14.01,2013-04-07 06:39:00,
2013-04-07 02:45:00,43.1,34.0,30.24,SE,129,0.0,1.0,70,0.00,,---,0.00,VWS V14.01,2013-04-07 06:45:00,
2013-04-07 02:50:00,42.9,33.8,30.24,SE,136,1.0,2.0,70,0.00,,---,0.00,VWS V14.01,2013-04-07 06:50:00,
2013-04-07 02:55:00,42.7,34.0,30.24,ESE,120,1.0,2.0,71,0.00,,---,0.00,VWS V14.01,2013-04-07 06:55:00,
2013-04-07 03:00:00,42.5,34.1,30.24,SE,136,2.0,2.0,72,0.00,,---,0.00,VWS V14.01,2013-04-07 07:00:00,
2013-04-07 03:05:00,42.1,34.1,30.23,SE,132,0.0,2.0,73,0.00,,---,0.00,VWS V14.01,2013-04-07 07:05:00,
2013-04-07 03:10:00,42.0,33.6,30.23,SE,127,1.0,2.0,72,0.00,,---,0.00,VWS V14.01,2013-04-07 07:10:00,
2013-04-07 03:15:00,41.9,33.5,30.23,SE,132,1.0,2.0,72,0.00,,---,0.00,VWS V14.01,2013-04-07 07:15:00,
2013-04-07 03:20:00,41.9,33.5,30.23,SE,135,1.0,2.0,72,0.00,,---,0.00,VWS V14.01,2013-04-07 07:20:00,
2013-04-07 03:25:00,41.8,33.5,30.23,SE,131,0.0,2.0,72,0.00,,---,0.00,VWS V14.01,2013-04-07 07:25:00,
2013-04-07 03:30:00,41.7,33.3,30.23,SE,134,1.0,1.0,72,0.00,,---,0.00,VWS V14.01,2013-04-07 07:30:00,
2013-04-07 03:36:00,41.6,33.6,30.23,SE,134,0.0,1.0,73,0.00,,---,0.00,VWS V14.01,2013-04-07 07:36:00,
2013-04-07 03:41:00,41.5,33.5,30.23,SE,134,0.0,1.0,73,0.00,,---,0.00,VWS V14.01,2013-04-07 07:41:00,
2013-04-07 03:46:00,41.3,33.3,30.24,SE,134,0.0,1.0,73,0.00,,---,0.00,VWS V14.01,2013-04-07 07:46:00,
2013-04-07 03:51:00,41.1,33.8,30.23,SE,134,0.0,1.0,75,0.00,,---,0.00,VWS V14.01,2013-04-07 07:51:00,
2013-04-07 03:56:00,40.7,33.4,30.23,SE,134,0.0,1.0,75,0.00,,---,0.00,VWS V14.01,2013-04-07 07:56:00,
2013-04-07 04:00:00,40.4,33.5,30.23,SE,134,0.0,1.0,76,0.00,,---,0.00,VWS V14.01,2013-04-07 08:00:00,
2013-04-07 04:01:00,40.4,33.5,30.23,SE,134,0.0,0.0,76,0.00,,---,0.00,VWS V14.01,2013-04-07 08:01:00,
2013-04-07 04:06:00,40.2,33.6,30.23,SE,134,0.0,0.0,77,0.00,,---,0.00,VWS V14.01,2013-04-07 08:06:00,
2013-04-07 04:12:00,40.1,33.5,30.23,SE,134,0.0,0.0,77,0.00,,---,0.00,VWS V14.01,2013-04-07 08:12:00,
2013-04-07 04:17:00,39.9,33.6,30.23,SE,134,0.0,0.0,78,0.00,,---,0.00,VWS V14.01,2013-04-07 08:17:00,
2013-04-07 04:22:00,39.8,33.5,30.23,SE,134,0.0,0.0,78,0.00,,---,0.00,VWS V14.01,2013-04-07 08:22:00,
2013-04-07 04:27:00,39.6,33.3,30.23,SE,134,0.0,0.0,78,0.00,,---,0.00,VWS V14.01,2013-04-07 08:27:00,
2013-04-07 04:30:00,39.5,33.5,30.23,SE,134,0.0,0.0,79,0.00,,---,0.00,VWS V14.01,2013-04-07 08:30:00,
2013-04-07 04:32:00,39.5,33.5,30.23,SE,134,0.0,0.0,79,0.00,,---,0.00,VWS V14.01,2013-04-07 08:32:00,
2013-04-07 04:37:00,39.4,33.8,30.23,SE,134,0.0,0.0,80,0.00,,---,0.00,VWS V14.01,2013-04-07 08:37:00,
2013-04-07 04:42:00,39.3,33.7,30.24,SE,134,0.0,0.0,80,0.00,,---,0.00,VWS V14.01,2013-04-07 08:42:00,
2013-04-07 04:47:00,39.2,33.6,30.24,SE,134,0.0,0.0,80,0.00,,---,0.00,VWS V14.01,2013-04-07 08:47:00,
2013-04-07 04:52:00,39.1,33.8,30.24,SE,134,0.0,0.0,81,0.00,,---,0.00,VWS V14.01,2013-04-07 08:52:00,
2013-04-07 04:57:00,38.9,33.9,30.24,SE,134,0.0,0.0,82,0.00,,---,0.00,VWS V14.01,2013-04-07 08:57:00,
2013-04-07 05:00:00,38.8,33.8,30.24,SE,134,0.0,0.0,82,0.00,,---,0.00,VWS V14.01,2013-04-07 09:00:00,
2013-04-07 05:03:00,38.6,33.6,30.24,SE,134,0.0,0.0,82,0.00,,---,0.00,VWS V14.01,2013-04-07 09:03:00,
2013-04-07 05:08:00,38.3,33.6,30.24,SE,134,0.0,0.0,83,0.00,,---,0.00,VWS V14.01,2013-04-07 09:08:00,
2013-04-07 05:13:00,38.0,33.3,30.24,SE,134,0.0,0.0,83,0.00,,---,0.00,VWS V14.01,2013-04-07 09:13:00,
2013-04-07 05:18:00,38.1,33.7,30.24,SE,134,0.0,0.0,84,0.00,,---,0.00,VWS V14.01,2013-04-07 09:18:00,
2013-04-07 05:23:00,38.2,33.8,30.24,SE,134,0.0,0.0,84,0.00,,---,0.00,VWS V14.01,2013-04-07 09:23:00,
2013-04-07 05:28:00,38.0,33.6,30.25,SE,134,0.0,0.0,84,0.00,,---,0.00,VWS V14.01,2013-04-07 09:28:00,
2013-04-07 05:30:00,37.9,33.5,30.24,SE,134,0.0,0.0,84,0.00,,---,0.00,VWS V14.01,2013-04-07 09:30:00,
2013-04-07 05:33:00,37.7,33.3,30.24,SE,134,0.0,0.0,84,0.00,,---,0.00,VWS V14.01,2013-04-07 09:33:00,
2013-04-07 05:38:00,37.6,33.5,30.24,SE,134,0.0,0.0,85,0.00,,---,0.00,VWS V14.01,2013-04-07 09:38:00,
2013-04-07 05:43:00,37.4,33.3,30.24,SE,134,0.0,0.0,85,0.00,,---,0.00,VWS V14.01,2013-04-07 09:43:00,
2013-04-07 05:49:00,37.3,33.5,30.25,SE,134,0.0,0.0,86,0.00,,---,0.00,VWS V14.01,2013-04-07 09:49:00,
2013-04-07 05:54:00,37.2,33.4,30.25,SE,134,0.0,0.0,86,0.00,,---,0.00,VWS V14.01,2013-04-07 09:54:00,
2013-04-07 05:59:00,37.1,33.6,30.25,SE,134,0.0,0.0,87,0.00,,---,0.00,VWS V14.01,2013-04-07 09:59:00,
2013-04-07 06:00:00,37.1,33.6,30.25,SE,134,0.0,0.0,87,0.00,,---,0.00,VWS V14.01,2013-04-07 10:00:00,
2013-04-07 06:04:00,37.0,33.2,30.25,SE,134,0.0,0.0,86,0.00,,---,0.00,VWS V14.01,2013-04-07 10:04:00,
2013-04-07 06:09:00,37.0,33.5,30.25,SE,134,0.0,0.0,87,0.00,,---,0.00,VWS V14.01,2013-04-07 10:09:00,
2013-04-07 06:15:00,36.9,33.4,30.25,SE,134,0.0,0.0,87,0.00,,---,0.00,VWS V14.01,2013-04-07 10:15:00,
2013-04-07 06:20:00,36.9,33.4,30.25,SE,134,0.0,0.0,87,0.00,,---,0.00,VWS V14.01,2013-04-07 10:20:00,
2013-04-07 06:25:00,36.9,33.4,30.26,SE,134,0.0,0.0,87,0.00,,---,0.00,VWS V14.01,2013-04-07 10:25:00,
2013-04-07 06:30:00,36.9,33.4,30.26,SE,134,0.0,0.0,87,0.00,,---,0.00,VWS V14.01,2013-04-07 10:30:00,
2013-04-07 06:35:00,36.8,33.3,30.26,SE,134,0.0,0.0,87,0.00,,---,0.00,VWS V14.01,2013-04-07 10:35:00,
2013-04-07 06:40:00,36.8,33.3,30.26,SE,134,0.0,0.0,87,0.00,,---,0.00,VWS V14.01,2013-04-07 10:40:00,
2013-04-07 06:45:00,36.6,33.1,30.26,SE,134,0.0,0.0,87,0.00,,---,0.00,VWS V14.01,2013-04-07 10:45:00,
2013-04-07 06:50:00,36.5,33.3,30.26,SE,134,0.0,0.0,88,0.00,,---,0.00,VWS V14.01,2013-04-07 10:50:00,
2013-04-07 06:55:00,36.4,33.2,30.27,SE,134,0.0,0.0,88,0.00,,---,0.00,VWS V14.01,2013-04-07 10:55:00,
2013-04-07 07:00:00,36.4,33.2,30.27,SE,134,0.0,0.0,88,0.00,,---,0.00,VWS V14.01,2013-04-07 11:00:00,
2013-04-07 07:05:00,36.3,33.1,30.27,SE,134,0.0,0.0,88,0.00,,---,0.00,VWS V14.01,2013-04-07 11:05:00,
2013-04-07 07:11:00,36.2,33.0,30.27,SE,134,0.0,0.0,88,0.00,,---,0.00,VWS V14.01,2013-04-07 11:11:00,
2013-04-07 07:16:00,36.2,33.0,30.27,SE,134,0.0,0.0,88,0.00,,---,0.00,VWS V14.01,2013-04-07 11:16:00,
2013-04-07 07:21:00,36.2,33.0,30.27,SE,134,0.0,0.0,88,0.00,,---,0.00,VWS V14.01,2013-04-07 11:21:00,
2013-04-07 07:26:00,36.3,33.4,30.27,SE,134,0.0,0.0,89,0.00,,---,0.00,VWS V14.01,2013-04-07 11:26:00,
2013-04-07 07:30:00,36.4,33.5,30.28,SE,134,0.0,0.0,89,0.00,,---,0.00,VWS V14.01,2013-04-07 11:30:00,
2013-04-07 07:31:00,36.5,33.6,30.27,SE,134,0.0,0.0,89,0.00,,---,0.00,VWS V14.01,2013-04-07 11:31:00,
2013-04-07 07:37:00,36.8,33.9,30.28,SE,134,0.0,0.0,89,0.00,,---,0.00,VWS V14.01,2013-04-07 11:37:00,
2013-04-07 07:42:00,37.3,34.4,30.28,SE,134,0.0,0.0,89,0.00,,---,0.00,VWS V14.01,2013-04-07 11:42:00,
2013-04-07 07:47:00,37.9,35.0,30.28,SE,134,0.0,0.0,89,0.00,,---,0.00,VWS V14.01,2013-04-07 11:47:00,
2013-04-07 07:52:00,38.3,35.1,30.28,SE,134,0.0,0.0,88,0.00,,---,0.00,VWS V14.01,2013-04-07 11:52:00,
2013-04-07 07:57:00,38.6,35.4,30.28,SE,134,0.0,0.0,88,0.00,,---,0.00,VWS V14.01,2013-04-07 11:57:00,
2013-04-07 08:00:00,39.2,35.7,30.28,SE,134,0.0,0.0,87,0.00,,---,0.00,VWS V14.01,2013-04-07 12:00:00,
2013-04-07 08:02:00,39.6,36.1,30.28,SE,134,0.0,0.0,87,0.00,,---,0.00,VWS V14.01,2013-04-07 12:02:00,
2013-04-07 08:07:00,40.6,36.2,30.28,SE,134,0.0,0.0,84,0.00,,---,0.00,VWS V14.01,2013-04-07 12:07:00,
2013-04-07 08:12:00,41.2,36.1,30.28,SE,132,0.0,0.0,82,0.00,,---,0.00,VWS V14.01,2013-04-07 12:12:00,
2013-04-07 08:17:00,42.0,36.6,30.28,SE,134,0.0,2.0,81,0.00,,---,0.00,VWS V14.01,2013-04-07 12:17:00,
2013-04-07 08:22:00,42.4,36.7,30.28,SE,136,1.0,2.0,80,0.00,,---,0.00,VWS V14.01,2013-04-07 12:22:00,
2013-04-07 08:27:00,42.8,37.1,30.28,East,87,0.0,2.0,80,0.00,,---,0.00,VWS V14.01,2013-04-07 12:27:00,
2013-04-07 08:30:00,43.1,37.0,30.28,SE,132,1.0,2.0,79,0.00,,---,0.00,VWS V14.01,2013-04-07 12:30:00,
2013-04-07 08:32:00,43.4,37.3,30.28,East,100,1.0,1.0,79,0.00,,---,0.00,VWS V14.01,2013-04-07 12:32:00,
2013-04-07 08:38:00,43.7,37.6,30.28,ESE,120,2.0,2.0,79,0.00,,---,0.00,VWS V14.01,2013-04-07 12:38:00,
2013-04-07 08:43:00,43.7,38.0,30.28,SE,146,2.0,4.0,80,0.00,,---,0.00,VWS V14.01,2013-04-07 12:43:00,
2013-04-07 08:48:00,43.8,38.0,30.28,SE,139,1.0,4.0,80,0.00,,---,0.00,VWS V14.01,2013-04-07 12:48:00,
2013-04-07 08:53:00,44.0,37.9,30.28,SSE,149,1.0,4.0,79,0.00,,---,0.00,VWS V14.01,2013-04-07 12:53:00,
2013-04-07 08:58:00,44.1,38.0,30.28,SSE,162,1.0,4.0,79,0.00,,---,0.00,VWS V14.01,2013-04-07 12:58:00,
2013-04-07 09:00:00,44.3,38.5,30.28,SE,142,1.0,4.0,80,0.00,,---,0.00,VWS V14.01,2013-04-07 13:00:00,
2013-04-07 09:03:00,44.6,38.5,30.28,SE,139,1.0,3.0,79,0.00,,---,0.00,VWS V14.01,2013-04-07 13:03:00,
2013-04-07 09:08:00,45.0,39.2,30.28,ESE,116,1.0,3.0,80,0.00,,---,0.00,VWS V14.01,2013-04-07 13:08:00,
2013-04-07 09:13:00,45.7,39.6,30.28,SE,140,1.0,3.0,79,0.00,,---,0.00,VWS V14.01,2013-04-07 13:13:00,
2013-04-07 09:18:00,46.1,39.6,30.28,South,181,2.0,4.0,78,0.00,,---,0.00,VWS V14.01,2013-04-07 13:18:00,
2013-04-07 09:23:00,46.5,40.0,30.28,SW,223,2.0,4.0,78,0.00,,---,0.00,VWS V14.01,2013-04-07 13:23:00,
2013-04-07 09:29:00,46.8,40.0,30.28,SE,141,1.0,4.0,77,0.00,,---,0.00,VWS V14.01,2013-04-07 13:29:00,
2013-04-07 09:30:00,47.0,40.2,30.28,SSW,198,1.0,4.0,77,0.00,,---,0.00,VWS V14.01,2013-04-07 13:30:00,
2013-04-07 09:34:00,47.3,40.5,30.28,SE,134,1.0,2.0,77,0.00,,---,0.00,VWS V14.01,2013-04-07 13:34:00,
2013-04-07 09:39:00,48.0,40.8,30.28,ESE,105,2.0,3.0,76,0.00,,---,0.00,VWS V14.01,2013-04-07 13:39:00,
2013-04-07 09:45:00,48.6,41.0,30.27,ESE,110,1.0,3.0,75,0.00,,---,0.00,VWS V14.01,2013-04-07 13:45:00,
2013-04-07 09:50:00,49.2,40.9,30.27,West,276,1.0,3.0,73,0.00,,---,0.00,VWS V14.01,2013-04-07 13:50:00,
2013-04-07 09:55:00,49.7,41.4,30.27,SSE,163,1.0,3.0,73,0.00,,---,0.00,VWS V14.01,2013-04-07 13:55:00,
2013-04-07 10:00:00,50.0,41.0,30.27,SW,215,2.0,3.0,71,0.00,,---,0.00,VWS V14.01,2013-04-07 14:00:00,
2013-04-07 10:05:00,50.3,41.3,30.27,SW,218,2.0,3.0,71,0.00,,---,0.00,VWS V14.01,2013-04-07 14:05:00,
2013-04-07 10:10:00,50.7,41.3,30.27,South,179,1.0,3.0,70,0.00,,---,0.00,VWS V14.01,2013-04-07 14:10:00,
2013-04-07 10:15:00,51.3,41.9,30.27,SE,141,1.0,4.0,70,0.00,,---,0.00,VWS V14.01,2013-04-07 14:15:00,
2013-04-07 10:20:00,51.7,41.9,30.27,West,277,0.0,4.0,69,0.00,,---,0.00,VWS V14.01,2013-04-07 14:20:00,
2013-04-07 10:26:00,52.3,41.7,30.27,WNW,285,2.0,4.0,67,0.00,,---,0.00,VWS V14.01,2013-04-07 14:26:00,
2013-04-07 10:30:00,52.9,41.5,30.27,SSE,166,2.0,4.0,65,0.00,,---,0.00,VWS V14.01,2013-04-07 14:30:00,
2013-04-07 10:31:00,53.0,41.6,30.27,WSW,256,1.0,2.0,65,0.00,,---,0.00,VWS V14.01,2013-04-07 14:31:00,
2013-04-07 10:36:00,53.6,40.9,30.27,SW,232,0.0,4.0,62,0.00,,---,0.00,VWS V14.01,2013-04-07 14:36:00,
2013-04-07 10:41:00,53.9,40.3,30.27,WSW,256,1.0,4.0,60,0.00,,---,0.00,VWS V14.01,2013-04-07 14:41:00,
2013-04-07 10:46:00,54.2,40.2,30.27,SE,141,2.0,5.0,59,0.00,,---,0.00,VWS V14.01,2013-04-07 14:46:00,
2013-04-07 10:51:00,54.3,40.7,30.27,SE,127,0.0,5.0,60,0.00,,---,0.00,VWS V14.01,2013-04-07 14:51:00,
2013-04-07 10:57:00,55.1,41.5,30.27,South,172,2.0,5.0,60,0.00,,---,0.00,VWS V14.01,2013-04-07 14:57:00,
2013-04-07 11:00:00,55.5,41.0,30.27,East,87,2.0,5.0,58,0.00,,---,0.00,VWS V14.01,2013-04-07 15:00:00,
2013-04-07 11:02:00,55.6,41.1,30.27,ESE,111,0.0,1.0,58,0.00,,---,0.00,VWS V14.01,2013-04-07 15:02:00,
2013-04-07 11:07:00,56.0,41.0,30.27,SE,145,1.0,3.0,57,0.00,,---,0.00,VWS V14.01,2013-04-07 15:07:00,
2013-04-07 11:12:00,56.4,39.0,30.26,South,177,1.0,6.0,52,0.00,,---,0.00,VWS V14.01,2013-04-07 15:12:00,
2013-04-07 11:17:00,57.0,39.1,30.26,West,268,3.0,6.0,51,0.00,,---,0.00,VWS V14.01,2013-04-07 15:17:00,
2013-04-07 11:22:00,57.6,39.1,30.26,WSW,257,1.0,6.0,50,0.00,,---,0.00,VWS V14.01,2013-04-07 15:22:00,
2013-04-07 11:27:00,58.1,40.6,30.26,SSE,149,2.0,6.0,52,0.00,,---,0.00,VWS V14.01,2013-04-07 15:27:00,
2013-04-07 11:30:00,58.4,39.8,30.26,SW,215,1.0,6.0,50,0.00,,---,0.00,VWS V14.01,2013-04-07 15:30:00,
2013-04-07 11:32:00,58.6,39.0,30.26,SSW,193,2.0,2.0,48,0.00,,---,0.00,VWS V14.01,2013-04-07 15:32:00,
2013-04-07 11:37:00,59.3,39.6,30.26,SW,214,2.0,4.0,48,0.00,,---,0.00,VWS V14.01,2013-04-07 15:37:00,
2013-04-07 11:42:00,59.6,39.4,30.25,ESE,123,4.0,6.0,47,0.00,,---,0.00,VWS V14.01,2013-04-07 15:42:00,
2013-04-07 11:48:00,59.4,39.7,30.25,SSE,159,4.0,6.0,48,0.00,,---,0.00,VWS V14.01,2013-04-07 15:48:00,
2013-04-07 11:53:00,59.6,39.9,30.25,West,274,1.0,6.0,48,0.00,,---,0.00,VWS V14.01,2013-04-07 15:53:00,
2013-04-07 11:58:00,60.5,40.7,30.25,SW,214,2.0,6.0,48,0.00,,---,0.00,VWS V14.01,2013-04-07 15:58:00,
2013-04-07 12:00:00,60.9,40.0,30.25,SSE,157,3.0,6.0,46,0.00,,---,0.00,VWS V14.01,2013-04-07 16:00:00,
2013-04-07 12:03:00,61.3,39.2,30.25,WSW,252,3.0,6.0,44,0.00,,---,0.00,VWS V14.01,2013-04-07 16:03:00,
2013-04-07 12:08:00,61.9,40.3,30.24,West,276,2.0,6.0,45,0.00,,---,0.00,VWS V14.01,2013-04-07 16:08:00,
2013-04-07 12:13:00,62.6,39.8,30.24,ESE,112,1.0,6.0,43,0.00,,---,0.00,VWS V14.01,2013-04-07 16:13:00,
2013-04-07 12:19:00,63.2,39.8,30.24,East,91,3.0,6.0,42,0.00,,---,0.00,VWS V14.01,2013-04-07 16:19:00,
2013-04-07 12:24:00,63.7,39.6,30.24,SSE,152,2.0,6.0,41,0.00,,---,0.00,VWS V14.01,2013-04-07 16:24:00,
2013-04-07 12:29:00,64.4,40.2,30.24,SSE,155,3.0,6.0,41,0.00,,---,0.00,VWS V14.01,2013-04-07 16:29:00,
2013-04-07 12:30:00,64.5,40.3,30.23,East,96,2.0,6.0,41,0.00,,---,0.00,VWS V14.01,2013-04-07 16:30:00,
2013-04-07 12:34:00,64.7,40.5,30.23,SE,138,3.0,6.0,41,0.00,,---,0.00,VWS V14.01,2013-04-07 16:34:00,
2013-04-07 12:39:00,65.5,41.2,30.23,SW,221,3.0,6.0,41,0.00,,---,0.00,VWS V14.01,2013-04-07 16:39:00,
2013-04-07 12:45:00,66.6,42.2,30.23,South,176,1.0,6.0,41,0.00,,---,0.00,VWS V14.01,2013-04-07 16:45:00,
2013-04-07 12:50:00,67.5,41.7,30.23,SE,142,2.0,6.0,39,0.00,,---,0.00,VWS V14.01,2013-04-07 16:50:00,
2013-04-07 12:55:00,67.7,41.9,30.23,SSW,194,2.0,6.0,39,0.00,,---,0.00,VWS V14.01,2013-04-07 16:55:00,
2013-04-07 13:00:00,68.0,42.1,30.22,SSW,211,2.0,6.0,39,0.00,,---,0.00,VWS V14.01,2013-04-07 17:00:00,
2013-04-07 13:05:00,69.0,43.0,30.22,WNW,284,2.0,6.0,39,0.00,,---,0.00,VWS V14.01,2013-04-07 17:05:00,
2013-04-07 13:10:00,69.4,42.7,30.22,SSW,203,4.0,6.0,38,0.00,,---,0.00,VWS V14.01,2013-04-07 17:10:00,
2013-04-07 13:15:00,69.6,42.2,30.22,SSE,161,1.0,6.0,37,0.00,,---,0.00,VWS V14.01,2013-04-07 17:15:00,
2013-04-07 13:20:00,69.3,42.6,30.21,South,191,5.0,6.0,38,0.00,,---,0.00,VWS V14.01,2013-04-07 17:20:00,
2013-04-07 13:25:00,69.3,42.6,30.21,SE,138,2.0,6.0,38,0.00,,---,0.00,VWS V14.01,2013-04-07 17:25:00,
2013-04-07 13:30:00,69.7,42.3,30.20,West,269,4.0,6.0,37,0.00,,---,0.00,VWS V14.01,2013-04-07 17:30:00,
2013-04-07 13:35:00,70.1,42.7,30.20,South,176,1.0,5.0,37,0.00,,---,0.00,VWS V14.01,2013-04-07 17:35:00,
2013-04-07 13:40:00,70.5,43.0,30.20,South,174,4.0,5.0,37,0.00,,---,0.00,VWS V14.01,2013-04-07 17:40:00,
2013-04-07 13:45:00,70.6,43.1,30.19,SW,225,4.0,5.0,37,0.00,,---,0.00,VWS V14.01,2013-04-07 17:45:00,
2013-04-07 13:50:00,70.5,43.0,30.19,WSW,253,2.0,8.0,37,0.00,,---,0.00,VWS V14.01,2013-04-07 17:50:00,
2013-04-07 13:56:00,70.9,42.6,30.19,ESE,113,2.0,8.0,36,0.00,,---,0.00,VWS V14.01,2013-04-07 17:56:00,
2013-04-07 14:00:00,71.1,44.2,30.18,WNW,287,2.0,8.0,38,0.00,,---,0.00,VWS V14.01,2013-04-07 18:00:00,
2013-04-07 14:01:00,71.4,44.5,30.18,WNW,299,2.0,3.0,38,0.00,,---,0.00,VWS V14.01,2013-04-07 18:01:00,
2013-04-07 14:06:00,71.8,43.4,30.18,SSE,166,2.0,5.0,36,0.00,,---,0.00,VWS V14.01,2013-04-07 18:06:00,
2013-04-07 14:11:00,71.8,43.4,30.17,East,79,3.0,7.0,36,0.00,,---,0.00,VWS V14.01,2013-04-07 18:11:00,
2013-04-07 14:16:00,71.4,43.8,30.17,West,281,4.0,7.0,37,0.00,,---,0.00,VWS V14.01,2013-04-07 18:16:00,
2013-04-07 14:22:00,72.2,43.8,30.17,SSE,162,4.0,7.0,36,0.00,,---,0.00,VWS V14.01,2013-04-07 18:22:00,
2013-04-07 14:27:00,71.4,43.1,30.16,SSE,160,5.0,7.0,36,0.00,,---,0.00,VWS V14.01,2013-04-07 18:27:00,
2013-04-07 14:30:00,71.1,43.5,30.16,SSE,167,3.0,7.0,37,0.00,,---,0.00,VWS V14.01,2013-04-07 18:30:00,
2013-04-07 14:32:00,71.2,43.6,30.16,SSW,194,0.0,4.0,37,0.00,,---,0.00,VWS V14.01,2013-04-07 18:32:00,
2013-04-07 14:37:00,71.9,44.9,30.16,South,178,3.0,5.0,38,0.00,,---,0.00,VWS V14.01,2013-04-07 18:37:00,
2013-04-07 14:42:00,72.6,44.1,30.15,WNW,290,1.0,5.0,36,0.00,,---,0.00,VWS V14.01,2013-04-07 18:42:00,
2013-04-07 14:47:00,73.3,45.5,30.15,West,278,2.0,5.0,37,0.00,,---,0.00,VWS V14.01,2013-04-07 18:47:00,
2013-04-07 14:52:00,73.2,44.7,30.15,West,259,5.0,6.0,36,0.00,,---,0.00,VWS V14.01,2013-04-07 18:52:00,
2013-04-07 14:57:00,72.8,45.0,30.15,WNW,284,2.0,6.0,37,0.00,,---,0.00,VWS V14.01,2013-04-07 18:57:00,
2013-04-07 15:00:00,72.8,44.3,30.14,WNW,288,1.0,6.0,36,0.00,,---,0.00,VWS V14.01,2013-04-07 19:00:00,
2013-04-07 15:02:00,73.1,44.6,30.14,SSW,198,2.0,4.0,36,0.00,,---,0.00,VWS V14.01,2013-04-07 19:02:00,
2013-04-07 15:08:00,73.0,44.5,30.14,SW,221,1.0,4.0,36,0.00,,---,0.00,VWS V14.01,2013-04-07 19:08:00,
2013-04-07 15:13:00,73.4,45.6,30.13,WNW,302,2.0,4.0,37,0.00,,---,0.00,VWS V14.01,2013-04-07 19:13:00,
2013-04-07 15:18:00,73.5,44.9,30.13,ESE,117,1.0,5.0,36,0.00,,---,0.00,VWS V14.01,2013-04-07 19:18:00,
2013-04-07 15:23:00,73.1,45.3,30.12,ENE,68,1.0,5.0,37,0.00,,---,0.00,VWS V14.01,2013-04-07 19:23:00,
2013-04-07 15:28:00,72.8,45.7,30.12,SW,225,2.0,5.0,38,0.00,,---,0.00,VWS V14.01,2013-04-07 19:28:00,
2013-04-07 15:30:00,72.8,45.7,30.12,ESE,117,1.0,5.0,38,0.00,,---,0.00,VWS V14.01,2013-04-07 19:30:00,
2013-04-07 15:33:00,72.5,45.5,30.12,SE,136,0.0,2.0,38,0.00,,---,0.00,VWS V14.01,2013-04-07 19:33:00,
2013-04-07 15:38:00,72.3,44.6,30.12,SE,126,8.0,9.0,37,0.00,,---,0.00,VWS V14.01,2013-04-07 19:38:00,
2013-04-07 15:43:00,71.8,44.8,30.12,SSE,155,1.0,9.0,38,0.00,,---,0.00,VWS V14.01,2013-04-07 19:43:00,
2013-04-07 15:49:00,71.9,45.6,30.11,WSW,251,1.0,9.0,39,0.00,,---,0.00,VWS V14.01,2013-04-07 19:49:00,
2013-04-07 15:54:00,72.2,45.2,30.11,SE,137,1.0,9.0,38,0.00,,---,0.00,VWS V14.01,2013-04-07 19:54:00,
2013-04-07 15:59:00,72.0,46.4,30.11,WNW,299,2.0,9.0,40,0.00,,---,0.00,VWS V14.01,2013-04-07 19:59:00,
2013-04-07 16:00:00,72.0,45.7,30.11,West,278,4.0,9.0,39,0.00,,---,0.00,VWS V14.01,2013-04-07 20:00:00,
2013-04-07 16:04:00,71.8,44.8,30.11,SW,225,5.0,5.0,38,0.00,,---,0.00,VWS V14.01,2013-04-07 20:04:00,
2013-04-07 16:09:00,71.6,44.7,30.11,SSW,211,1.0,7.0,38,0.00,,---,0.00,VWS V14.01,2013-04-07 20:09:00,
2013-04-07 16:14:00,71.6,45.4,30.10,West,281,1.0,7.0,39,0.00,,---,0.00,VWS V14.01,2013-04-07 20:14:00,
2013-04-07 16:19:00,71.9,45.6,30.11,WNW,294,2.0,7.0,39,0.00,,---,0.00,VWS V14.01,2013-04-07 20:19:00,
2013-04-07 16:24:00,71.8,44.8,30.10,WSW,242,3.0,7.0,38,0.00,,---,0.00,VWS V14.01,2013-04-07 20:24:00,
2013-04-07 16:29:00,71.7,44.8,30.10,SSW,201,4.0,7.0,38,0.00,,---,0.00,VWS V14.01,2013-04-07 20:29:00,
2013-04-07 16:30:00,71.6,44.7,30.10,SSE,155,3.0,7.0,38,0.00,,---,0.00,VWS V14.01,2013-04-07 20:30:00,
2013-04-07 16:34:00,71.5,44.6,30.10,West,278,3.0,8.0,38,0.00,,---,0.00,VWS V14.01,2013-04-07 20:34:00,
2013-04-07 16:40:00,71.6,44.7,30.10,West,271,4.0,8.0,38,0.00,,---,0.00,VWS V14.01,2013-04-07 20:40:00,
2013-04-07 16:45:00,71.6,44.7,30.10,SSE,158,3.0,8.0,38,0.00,,---,0.00,VWS V14.01,2013-04-07 20:45:00,
2013-04-07 16:50:00,71.6,45.4,30.10,SW,226,2.0,8.0,39,0.00,,---,0.00,VWS V14.01,2013-04-07 20:50:00,
2013-04-07 16:55:00,71.5,43.9,30.10,West,271,3.0,8.0,37,0.00,,---,0.00,VWS V14.01,2013-04-07 20:55:00,
2013-04-07 17:00:00,71.3,43.7,30.10,SSW,203,2.0,8.0,37,0.00,,---,0.00,VWS V14.01,2013-04-07 21:00:00,
2013-04-07 17:05:00,71.4,44.5,30.10,South,177,2.0,4.0,38,0.00,,---,0.00,VWS V14.01,2013-04-07 21:05:00,
2013-04-07 17:10:00,71.5,44.6,30.09,SSE,149,1.0,4.0,38,0.00,,---,0.00,VWS V14.01,2013-04-07 21:10:00,
2013-04-07 17:15:00,71.3,44.4,30.09,SW,219,1.0,4.0,38,0.00,,---,0.00,VWS V14.01,2013-04-07 21:15:00,
2013-04-07 17:20:00,71.1,44.2,30.09,WSW,256,1.0,4.0,38,0.00,,---,0.00,VWS V14.01,2013-04-07 21:20:00,
2013-04-07 17:25:00,71.0,44.1,30.10,WSW,238,2.0,6.0,38,0.00,,---,0.00,VWS V14.01,2013-04-07 21:25:00,
2013-04-07 17:30:00,71.1,44.2,30.10,West,281,1.0,2.0,38,0.00,,---,0.00,VWS V14.01,2013-04-07 21:30:00,
2013-04-07 17:35:00,71.0,43.4,30.10,SSW,203,3.0,4.0,37,0.00,,---,0.00,VWS V14.01,2013-04-07 21:35:00,
2013-04-07 17:40:00,70.8,44.0,30.09,WSW,243,0.0,4.0,38,0.00,,---,0.00,VWS V14.01,2013-04-07 21:40:00,
2013-04-07 17:45:00,70.8,44.0,30.09,WSW,240,1.0,4.0,38,0.00,,---,0.00,VWS V14.01,2013-04-07 21:45:00,
2013-04-07 17:50:00,70.8,44.0,30.10,SSW,210,1.0,6.0,38,0.00,,---,0.00,VWS V14.01,2013-04-07 21:50:00,
2013-04-07 17:55:00,70.7,43.9,30.10,SW,221,2.0,6.0,38,0.00,,---,0.00,VWS V14.01,2013-04-07 21:55:00,
2013-04-07 18:00:00,70.7,44.5,30.10,WSW,250,1.0,2.0,39,0.00,,---,0.00,VWS V14.01,2013-04-07 22:00:00,
2013-04-07 18:05:00,70.6,43.8,30.09,South,191,1.0,3.0,38,0.00,,---,0.00,VWS V14.01,2013-04-07 22:05:00,
2013-04-07 18:10:00,70.5,43.7,30.09,SSE,167,0.0,3.0,38,0.00,,---,0.00,VWS V14.01,2013-04-07 22:10:00,
2013-04-07 18:15:00,70.3,44.2,30.10,WSW,250,1.0,3.0,39,0.00,,---,0.00,VWS V14.01,2013-04-07 22:15:00,
2013-04-07 18:21:00,70.2,43.4,30.10,SW,215,1.0,3.0,38,0.00,,---,0.00,VWS V14.01,2013-04-07 22:21:00,
2013-04-07 18:26:00,70.2,44.8,30.10,SSE,160,0.0,3.0,40,0.00,,---,0.00,VWS V14.01,2013-04-07 22:26:00,
2013-04-07 18:30:00,70.1,44.0,30.10,South,183,0.0,3.0,39,0.00,,---,0.00,VWS V14.01,2013-04-07 22:30:00,
2013-04-07 18:31:00,70.1,44.0,30.10,SW,235,1.0,2.0,39,0.00,,---,0.00,VWS V14.01,2013-04-07 22:31:00,
2013-04-07 18:37:00,69.9,43.8,30.10,WSW,245,0.0,2.0,39,0.00,,---,0.00,VWS V14.01,2013-04-07 22:37:00,
2013-04-07 18:42:00,69.9,43.8,30.10,SSW,201,0.0,2.0,39,0.00,,---,0.00,VWS V14.01,2013-04-07 22:42:00,
2013-04-07 18:47:00,69.7,44.3,30.10,SW,235,1.0,2.0,40,0.00,,---,0.00,VWS V14.01,2013-04-07 22:47:00,
2013-04-07 18:52:00,69.5,44.2,30.10,WSW,252,0.0,2.0,40,0.00,,---,0.00,VWS V14.01,2013-04-07 22:52:00,
2013-04-07 18:57:00,69.3,44.0,30.10,SE,141,1.0,3.0,40,0.00,,---,0.00,VWS V14.01,2013-04-07 22:57:00,
2013-04-07 19:00:00,69.2,43.9,30.10,SSW,210,1.0,3.0,40,0.00,,---,0.00,VWS V14.01,2013-04-07 23:00:00,
2013-04-07 19:02:00,69.0,43.7,30.10,SW,226,1.0,2.0,40,0.00,,---,0.00,VWS V14.01,2013-04-07 23:02:00,
2013-04-07 19:07:00,68.9,43.6,30.10,SE,138,3.0,3.0,40,0.00,,---,0.00,VWS V14.01,2013-04-07 23:07:00,
2013-04-07 19:12:00,68.8,43.5,30.10,South,179,1.0,5.0,40,0.00,,---,0.00,VWS V14.01,2013-04-07 23:12:00,
2013-04-07 19:18:00,68.6,43.3,30.10,SSW,195,1.0,5.0,40,0.00,,---,0.00,VWS V14.01,2013-04-07 23:18:00,
2013-04-07 19:23:00,68.4,43.2,30.10,NE,39,1.0,5.0,40,0.00,,---,0.00,VWS V14.01,2013-04-07 23:23:00,
2013-04-07 19:28:00,68.3,43.7,30.09,SSE,167,1.0,5.0,41,0.00,,---,0.00,VWS V14.01,2013-04-07 23:28:00,
2013-04-07 19:30:00,68.2,43.6,30.09,South,174,1.0,5.0,41,0.00,,---,0.00,VWS V14.01,2013-04-07 23:30:00,
2013-04-07 19:33:00,68.1,43.5,30.09,SSW,205,0.0,1.0,41,0.00,,---,0.00,VWS V14.01,2013-04-07 23:33:00,
2013-04-07 19:38:00,67.8,43.9,30.09,SSE,160,0.0,2.0,42,0.00,,---,0.00,VWS V14.01,2013-04-07 23:38:00,
2013-04-07 19:43:00,67.5,43.6,30.09,SSE,161,0.0,2.0,42,0.00,,---,0.00,VWS V14.01,2013-04-07 23:43:00,
2013-04-07 19:48:00,67.2,44.0,30.09,SSE,160,0.0,2.0,43,0.00,,---,0.00,VWS V14.01,2013-04-07 23:48:00,
2013-04-07 19:53:00,66.9,44.3,30.10,SSE,149,1.0,2.0,44,0.00,,---,0.00,VWS V14.01,2013-04-07 23:53:00,
2013-04-07 19:59:00,66.7,44.1,30.10,SSE,149,0.0,2.0,44,0.00,,---,0.00,VWS V14.01,2013-04-07 23:59:00,
2013-04-07 20:00:00,66.6,44.0,30.10,SSE,149,0.0,2.0,44,0.00,,---,0.00,VWS V14.01,2013-04-08 00:00:00,
2013-04-07 20:04:00,66.3,44.3,30.10,SSE,149,0.0,0.0,45,0.00,,---,0.00,VWS V14.01,2013-04-08 00:04:00,
2013-04-07 20:09:00,65.8,44.5,30.10,SSE,149,0.0,0.0,46,0.00,,---,0.00,VWS V14.01,2013-04-08 00:09:00,
2013-04-07 20:14:00,65.2,44.5,30.10,SSE,149,0.0,0.0,47,0.00,,---,0.00,VWS V14.01,2013-04-08 00:14:00,
2013-04-07 20:19:00,64.8,44.1,30.10,SSE,149,0.0,0.0,47,0.00,,---,0.00,VWS V14.01,2013-04-08 00:19:00,
2013-04-07 20:24:00,64.5,44.4,30.10,SSE,150,0.0,0.0,48,0.00,,---,0.00,VWS V14.01,2013-04-08 00:24:00,
2013-04-07 20:30:00,64.0,44.5,30.11,SSE,149,0.0,0.0,49,0.00,,---,0.00,VWS V14.01,2013-04-08 00:30:00,
2013-04-07 20:35:00,63.6,44.1,30.11,SSE,149,0.0,0.0,49,0.00,,---,0.00,VWS V14.01,2013-04-08 00:35:00,
2013-04-07 20:40:00,63.3,44.4,30.11,SSE,149,0.0,0.0,50,0.00,,---,0.00,VWS V14.01,2013-04-08 00:40:00,
2013-04-07 20:45:00,63.0,45.6,30.11,SSE,149,0.0,0.0,53,0.00,,---,0.00,VWS V14.01,2013-04-08 00:45:00,
2013-04-07 20:50:00,62.4,45.5,30.11,SSE,149,0.0,0.0,54,0.00,,---,0.00,VWS V14.01,2013-04-08 00:50:00,
2013-04-07 20:55:00,61.7,44.9,30.11,SSE,149,0.0,0.0,54,0.00,,---,0.00,VWS V14.01,2013-04-08 00:55:00,
2013-04-07 21:00:00,61.3,45.5,30.11,SSE,149,0.0,0.0,56,0.00,,---,0.00,VWS V14.01,2013-04-08 01:00:00,
2013-04-07 21:05:00,60.8,45.0,30.11,SSE,149,0.0,0.0,56,0.00,,---,0.00,VWS V14.01,2013-04-08 01:05:00,
2013-04-07 21:11:00,60.6,45.8,30.11,SSE,150,0.0,0.0,58,0.00,,---,0.00,VWS V14.01,2013-04-08 01:11:00,
2013-04-07 21:16:00,60.0,45.7,30.11,SSW,199,1.0,2.0,59,0.00,,---,0.00,VWS V14.01,2013-04-08 01:16:00,
2013-04-07 21:21:00,60.0,46.1,30.11,SSW,207,0.0,2.0,60,0.00,,---,0.00,VWS V14.01,2013-04-08 01:21:00,
2013-04-07 21:26:00,60.0,44.7,30.11,ESE,109,0.0,2.0,57,0.00,,---,0.00,VWS V14.01,2013-04-08 01:26:00,
2013-04-07 21:30:00,60.5,44.7,30.11,SE,139,1.0,2.0,56,0.00,,---,0.00,VWS V14.01,2013-04-08 01:30:00,
2013-04-07 21:31:00,60.8,43.6,30.11,SSW,207,2.0,2.0,53,0.00,,---,0.00,VWS V14.01,2013-04-08 01:31:00,
2013-04-07 21:36:00,61.3,45.0,30.11,SSW,195,1.0,2.0,55,0.00,,---,0.00,VWS V14.01,2013-04-08 01:36:00,
2013-04-07 21:41:00,61.3,44.5,30.11,SSW,195,0.0,2.0,54,0.00,,---,0.00,VWS V14.01,2013-04-08 01:41:00,
2013-04-07 21:47:00,61.4,44.6,30.11,South,191,0.0,2.0,54,0.00,,---,0.00,VWS V14.01,2013-04-08 01:47:00,
2013-04-07 21:52:00,61.3,44.5,30.11,SSE,156,0.0,2.0,54,0.00,,---,0.00,VWS V14.01,2013-04-08 01:52:00,
2013-04-07 21:57:00,61.3,43.5,30.11,SSE,162,1.0,2.0,52,0.00,,---,0.00,VWS V14.01,2013-04-08 01:57:00,
2013-04-07 22:00:00,61.3,44.0,30.11,SSE,158,1.0,2.0,53,0.00,,---,0.00,VWS V14.01,2013-04-08 02:00:00,
2013-04-07 22:02:00,61.3,44.0,30.11,SSE,159,1.0,2.0,53,0.00,,---,0.00,VWS V14.01,2013-04-08 02:02:00,
2013-04-07 22:07:00,61.2,43.5,30.11,SSE,152,0.0,2.0,52,0.00,,---,0.00,VWS V14.01,2013-04-08 02:07:00,
2013-04-07 22:12:00,61.1,44.3,30.11,SSE,152,0.0,2.0,54,0.00,,---,0.00,VWS V14.01,2013-04-08 02:12:00,
2013-04-07 22:17:00,60.9,44.6,30.11,SW,216,0.0,2.0,55,0.00,,---,0.00,VWS V14.01,2013-04-08 02:17:00,
2013-04-07 22:22:00,60.7,44.5,30.11,SW,217,0.0,2.0,55,0.00,,---,0.00,VWS V14.01,2013-04-08 02:22:00,
2013-04-07 22:27:00,60.3,44.6,30.11,SW,217,0.0,2.0,56,0.00,,---,0.00,VWS V14.01,2013-04-08 02:27:00,
2013-04-07 22:30:00,60.1,44.4,30.11,SW,217,0.0,2.0,56,0.00,,---,0.00,VWS V14.01,2013-04-08 02:30:00,
2013-04-07 22:32:00,60.1,44.8,30.11,SW,217,0.0,1.0,57,0.00,,---,0.00,VWS V14.01,2013-04-08 02:32:00,
2013-04-07 22:37:00,60.0,44.3,30.11,SW,217,0.0,1.0,56,0.00,,---,0.00,VWS V14.01,2013-04-08 02:37:00,
2013-04-07 22:42:00,59.7,44.5,30.11,SW,217,0.0,1.0,57,0.00,,---,0.00,VWS V14.01,2013-04-08 02:42:00,
2013-04-07 22:47:00,59.1,44.8,30.11,SSW,198,0.0,2.0,59,0.00,,---,0.00,VWS V14.01,2013-04-08 02:47:00,
2013-04-07 22:53:00,59.4,44.2,30.11,SE,138,2.0,2.0,57,0.00,,---,0.00,VWS V14.01,2013-04-08 02:53:00,
2013-04-07 22:57:00,60.2,44.0,30.11,SE,137,2.0,3.0,55,0.00,,---,0.00,VWS V14.01,2013-04-08 02:57:00,
2013-04-07 23:00:00,60.5,44.3,30.11,SE,134,2.0,3.0,55,0.00,,---,0.00,VWS V14.01,2013-04-08 03:00:00,
2013-04-07 23:03:00,60.6,43.9,30.11,SSW,207,1.0,3.0,54,0.00,,---,0.00,VWS V14.01,2013-04-08 03:03:00,
2013-04-07 23:08:00,60.7,44.0,30.11,South,188,1.0,3.0,54,0.00,,---,0.00,VWS V14.01,2013-04-08 03:08:00,
2013-04-07 23:13:00,60.7,44.9,30.11,SSW,205,1.0,3.0,56,0.00,,---,0.00,VWS V14.01,2013-04-08 03:13:00,
2013-04-07 23:18:00,60.4,44.7,30.11,SSW,210,0.0,3.0,56,0.00,,---,0.00,VWS V14.01,2013-04-08 03:18:00,
2013-04-07 23:23:00,60.3,45.0,30.11,SW,217,0.0,3.0,57,0.00,,---,0.00,VWS V14.01,2013-04-08 03:23:00,
2013-04-07 23:28:00,60.2,45.4,30.11,SSW,204,0.0,3.0,58,0.00,,---,0.00,VWS V14.01,2013-04-08 03:28:00,
2013-04-07 23:30:00,60.2,45.8,30.11,SSW,211,0.0,3.0,59,0.00,,---,0.00,VWS V14.01,2013-04-08 03:30:00,
2013-04-07 23:33:00,60.0,46.1,30.11,SSE,150,1.0,2.0,60,0.00,,---,0.00,VWS V14.01,2013-04-08 03:33:00,
2013-04-07 23:39:00,60.0,46.5,30.11,SW,228,1.0,3.0,61,0.00,,---,0.00,VWS V14.01,2013-04-08 03:39:00,
2013-04-07 23:44:00,60.0,47.0,30.11,SSE,168,0.0,3.0,62,0.00,,---,0.00,VWS V14.01,2013-04-08 03:44:00,
2013-04-07 23:49:00,59.8,46.8,30.12,SW,217,1.0,3.0,62,0.00,,---,0.00,VWS V14.01,2013-04-08 03:49:00,
2013-04-07 23:54:00,59.7,47.1,30.12,SSW,207,0.0,3.0,63,0.00,,---,0.00,VWS V14.01,2013-04-08 03:54:00,
2013-04-07 23:59:00,59.6,47.4,30.12,SSE,149,2.0,3.0,64,0.00,,---,0.00,VWS V14.01,2013-04-08 03:59:00,